Saint Bonnet de Bellac- Haute Vienne - France
Donnes mto: mercredi, 28/03/2012
Date Horaire Temp. E. Hum. E. P.atmo. Pluie Vent Direction Direction Ensoleilleme Solaire P. de rose Temp au vent Rafales
28/03/2012 00:00 10,1 C 56 % 1026,9 hPa 0,0 mm 0,0 km/h (0 Bft) NE 45 0 min 0 W/m 1,7 C 10,1 C 0,0 km/h (0 Bft)
28/03/2012 00:10 9,8 C 57 % 1026,9 hPa 0,0 mm 0,7 km/h (0 Bft) NE 45 0 min 0 W/m 1,7 C 9,8 C 3,2 km/h (1 Bft)
28/03/2012 00:20 9,7 C 58 % 1026,9 hPa 0,0 mm 0,7 km/h (0 Bft) NE 45 0 min 0 W/m 1,8 C 9,7 C 2,9 km/h (1 Bft)
28/03/2012 00:30 9,9 C 58 % 1026,9 hPa 0,0 mm 0,0 km/h (0 Bft) NE 45 0 min 0 W/m 2,0 C 9,9 C 0,0 km/h (0 Bft)
28/03/2012 00:40 9,8 C 58 % 1026,8 hPa 0,0 mm 0,0 km/h (0 Bft) NE 45 0 min 0 W/m 1,9 C 9,8 C 0,0 km/h (0 Bft)
28/03/2012 00:50 9,6 C 58 % 1026,8 hPa 0,0 mm 0,0 km/h (0 Bft) NE 45 0 min 0 W/m 1,8 C 9,6 C 0,0 km/h (0 Bft)
28/03/2012 01:00 9,3 C 59 % 1026,8 hPa 0,0 mm 0,0 km/h (0 Bft) NE 45 0 min 0 W/m 1,7 C 9,3 C 0,0 km/h (0 Bft)
28/03/2012 01:10 8,9 C 60 % 1026,7 hPa 0,0 mm 0,0 km/h (0 Bft) NE 45 0 min 0 W/m 1,6 C 8,9 C 0,0 km/h (0 Bft)
28/03/2012 01:20 8,8 C 60 % 1026,6 hPa 0,0 mm 0,0 km/h (0 Bft) NE 45 0 min 0 W/m 1,5 C 8,8 C 0,0 km/h (0 Bft)
28/03/2012 01:30 8,5 C 62 % 1026,6 hPa 0,0 mm 0,0 km/h (0 Bft) NE 45 0 min 0 W/m 1,6 C 8,5 C 0,0 km/h (0 Bft)
28/03/2012 01:40 8,3 C 63 % 1026,6 hPa 0,0 mm 0,0 km/h (0 Bft) N-NE 22 0 min 0 W/m 1,7 C 8,3 C 3,2 km/h (1 Bft)
28/03/2012 01:50 8,2 C 63 % 1026,6 hPa 0,0 mm 1,4 km/h (1 Bft) N-NE 22 0 min 0 W/m 1,6 C 8,2 C 4,3 km/h (1 Bft)
28/03/2012 02:00 8,1 C 64 % 1026,6 hPa 0,0 mm 0,4 km/h (0 Bft) N-NE 22 0 min 0 W/m 1,7 C 8,1 C 2,9 km/h (1 Bft)
28/03/2012 02:10 7,9 C 65 % 1026,6 hPa 0,0 mm 0,0 km/h (0 Bft) N-NE 22 0 min 0 W/m 1,7 C 7,9 C 0,0 km/h (0 Bft)
28/03/2012 02:20 7,7 C 65 % 1026,6 hPa 0,0 mm 0,0 km/h (0 Bft) N-NE 22 0 min 0 W/m 1,5 C 7,7 C 0,0 km/h (0 Bft)
28/03/2012 02:30 7,6 C 66 % 1026,5 hPa 0,0 mm 0,0 km/h (0 Bft) N-NE 22 0 min 0 W/m 1,7 C 7,6 C 0,0 km/h (0 Bft)
28/03/2012 02:40 7,4 C 66 % 1026,5 hPa 0,0 mm 0,0 km/h (0 Bft) N-NE 22 0 min 0 W/m 1,5 C 7,4 C 0,0 km/h (0 Bft)
28/03/2012 02:50 7,1 C 67 % 1026,4 hPa 0,0 mm 0,0 km/h (0 Bft) N-NE 22 0 min 0 W/m 1,4 C 7,1 C 0,0 km/h (0 Bft)
28/03/2012 03:02 6,8 C 67 % 1026,3 hPa 0,0 mm 0,0 km/h (0 Bft) N-NE 22 0 min 0 W/m 1,1 C 6,8 C 0,0 km/h (0 Bft)
28/03/2012 03:10 6,5 C 68 % 1026,3 hPa 0,0 mm 0,0 km/h (0 Bft) N-NE 22 0 min 0 W/m 1,0 C 6,5 C 0,0 km/h (0 Bft)
28/03/2012 03:20 6,4 C 69 % 1026,3 hPa 0,0 mm 0,0 km/h (0 Bft) N-NE 22 0 min 0 W/m 1,1 C 6,4 C 0,0 km/h (0 Bft)
28/03/2012 03:30 6,3 C 69 % 1026,2 hPa 0,0 mm 0,0 km/h (0 Bft) N-NE 22 0 min 0 W/m 1,0 C 6,3 C 0,0 km/h (0 Bft)
28/03/2012 03:40 6,1 C 70 % 1026,3 hPa 0,0 mm 0,0 km/h (0 Bft) N-NE 22 0 min 0 W/m 1,0 C 6,1 C 1,4 km/h (1 Bft)
28/03/2012 03:50 5,9 C 71 % 1026,1 hPa 0,0 mm 0,0 km/h (0 Bft) NE 45 0 min 0 W/m 1,1 C 5,9 C 0,0 km/h (0 Bft)
28/03/2012 04:00 5,9 C 72 % 1026,1 hPa 0,0 mm 0,0 km/h (0 Bft) N-NE 22 0 min 0 W/m 1,2 C 5,9 C 0,0 km/h (0 Bft)
28/03/2012 04:10 5,8 C 72 % 1026,1 hPa 0,0 mm 0,0 km/h (0 Bft) N-NE 22 0 min 0 W/m 1,2 C 5,8 C 0,0 km/h (0 Bft)
28/03/2012 04:20 5,5 C 72 % 1026,0 hPa 0,0 mm 0,0 km/h (0 Bft) NE 45 0 min 0 W/m 0,9 C 5,5 C 0,0 km/h (0 Bft)
28/03/2012 04:30 5,4 C 73 % 1025,9 hPa 0,0 mm 0,0 km/h (0 Bft) NE 45 0 min 0 W/m 1,0 C 5,4 C 0,0 km/h (0 Bft)
28/03/2012 04:40 5,2 C 73 % 1025,9 hPa 0,0 mm 0,0 km/h (0 Bft) NE 45 0 min 0 W/m 0,8 C 5,2 C 0,0 km/h (0 Bft)
28/03/2012 04:50 5,1 C 75 % 1025,9 hPa 0,0 mm 0,0 km/h (0 Bft) NE 45 0 min 0 W/m 1,0 C 5,1 C 0,0 km/h (0 Bft)
28/03/2012 05:00 4,8 C 75 % 1025,9 hPa 0,0 mm 0,0 km/h (0 Bft) NE 45 0 min 0 W/m 0,8 C 4,8 C 0,0 km/h (0 Bft)
28/03/2012 05:10 4,6 C 75 % 1025,7 hPa 0,0 mm 0,0 km/h (0 Bft) NE 45 0 min 0 W/m 0,6 C 4,6 C 0,0 km/h (0 Bft)
28/03/2012 05:20 4,4 C 76 % 1025,7 hPa 0,0 mm 0,0 km/h (0 Bft) NE 45 0 min 0 W/m 0,5 C 4,4 C 0,0 km/h (0 Bft)
28/03/2012 05:30 4,3 C 76 % 1025,8 hPa 0,0 mm 0,4 km/h (0 Bft) E-NE 67 0 min 0 W/m 0,5 C 4,3 C 3,2 km/h (1 Bft)
28/03/2012 05:40 4,0 C 76 % 1025,9 hPa 0,0 mm 1,4 km/h (1 Bft) E-NE 67 0 min 0 W/m 0,2 C 4,0 C 4,3 km/h (1 Bft)
28/03/2012 05:50 3,6 C 76 % 1025,8 hPa 0,0 mm 0,0 km/h (0 Bft) E-NE 67 0 min 0 W/m -0,2 C 3,6 C 0,0 km/h (0 Bft)
28/03/2012 06:00 3,4 C 77 % 1025,8 hPa 0,0 mm 0,0 km/h (0 Bft) E 90 0 min 0 W/m -0,2 C 3,4 C 0,0 km/h (0 Bft)
28/03/2012 06:10 3,4 C 78 % 1025,8 hPa 0,0 mm 0,0 km/h (0 Bft) NE 45 0 min 0 W/m -0,1 C 3,4 C 0,0 km/h (0 Bft)
28/03/2012 06:20 3,2 C 79 % 1025,7 hPa 0,0 mm 0,0 km/h (0 Bft) NE 45 0 min 0 W/m -0,1 C 3,2 C 0,0 km/h (0 Bft)
28/03/2012 06:30 3,1 C 79 % 1025,8 hPa 0,0 mm 0,0 km/h (0 Bft) NE 45 0 min 0 W/m -0,2 C 3,1 C 0,0 km/h (0 Bft)
28/03/2012 06:40 3,1 C 79 % 1025,8 hPa 0,0 mm 0,0 km/h (0 Bft) E 90 0 min 0 W/m -0,2 C 3,1 C 0,0 km/h (0 Bft)
28/03/2012 06:50 3,1 C 80 % 1025,7 hPa 0,0 mm 0,0 km/h (0 Bft) SO 225 0 min 0 W/m -0,0 C 3,1 C 0,0 km/h (0 Bft)
28/03/2012 07:00 2,8 C 80 % 1025,7 hPa 0,0 mm 0,0 km/h (0 Bft) SE 135 0 min 0 W/m -0,3 C 2,8 C 0,0 km/h (0 Bft)
28/03/2012 07:10 2,6 C 80 % 1025,7 hPa 0,0 mm 0,0 km/h (0 Bft) E-SE 112 0 min 0 W/m -0,5 C 2,6 C 0,0 km/h (0 Bft)
28/03/2012 07:20 2,5 C 80 % 1025,8 hPa 0,0 mm 0,0 km/h (0 Bft) E 90 0 min 0 W/m -0,6 C 2,5 C 0,0 km/h (0 Bft)
28/03/2012 07:30 2,4 C 80 % 1025,7 hPa 0,0 mm 0,0 km/h (0 Bft) E 90 0 min 0 W/m -0,7 C 2,4 C 0,0 km/h (0 Bft)
28/03/2012 07:40 2,3 C 81 % 1025,9 hPa 0,0 mm 0,0 km/h (0 Bft) E 90 0 min 0 W/m -0,6 C 2,3 C 0,0 km/h (0 Bft)
28/03/2012 07:50 2,2 C 82 % 1025,9 hPa 0,0 mm 0,0 km/h (0 Bft) E 90 0 min 0 W/m -0,5 C 2,2 C 0,0 km/h (0 Bft)
28/03/2012 08:00 2,2 C 82 % 1025,9 hPa 0,0 mm 0,0 km/h (0 Bft) E 90 2 min 0 W/m -0,5 C 2,2 C 0,0 km/h (0 Bft)
28/03/2012 08:10 2,3 C 82 % 1026,0 hPa 0,0 mm 0,0 km/h (0 Bft) SE 135 2 min 0 W/m -0,4 C 2,3 C 0,0 km/h (0 Bft)
28/03/2012 08:20 2,3 C 83 % 1026,0 hPa 0,0 mm 0,0 km/h (0 Bft) SE 135 2 min 0 W/m -0,3 C 2,3 C 0,0 km/h (0 Bft)
28/03/2012 08:30 2,4 C 83 % 1026,1 hPa 0,0 mm 0,0 km/h (0 Bft) E 90 2 min 0 W/m -0,2 C 2,4 C 1,4 km/h (1 Bft)
28/03/2012 08:40 2,5 C 83 % 1026,1 hPa 0,0 mm 0,0 km/h (0 Bft) E 90 2 min 0 W/m -0,1 C 2,5 C 0,0 km/h (0 Bft)
28/03/2012 08:50 2,9 C 84 % 1026,2 hPa 0,0 mm 0,0 km/h (0 Bft) E 90 2 min 0 W/m 0,5 C 2,9 C 0,0 km/h (0 Bft)
28/03/2012 09:00 3,6 C 85 % 1026,3 hPa 0,0 mm 0,0 km/h (0 Bft) E 90 2 min 0 W/m 1,3 C 3,6 C 0,0 km/h (0 Bft)
28/03/2012 09:10 4,5 C 85 % 1026,4 hPa 0,0 mm 0,0 km/h (0 Bft) E 90 2 min 0 W/m 2,2 C 4,5 C 0,0 km/h (0 Bft)
28/03/2012 09:20 5,4 C 84 % 1026,2 hPa 0,0 mm 0,0 km/h (0 Bft) E 90 2 min 0 W/m 2,9 C 5,4 C 0,0 km/h (0 Bft)
28/03/2012 09:30 6,3 C 82 % 1026,2 hPa 0,0 mm 0,0 km/h (0 Bft) E 90 2 min 0 W/m 3,5 C 6,3 C 0,0 km/h (0 Bft)
28/03/2012 09:40 7,4 C 81 % 1026,6 hPa 0,0 mm 0,0 km/h (0 Bft) E 90 2 min 0 W/m 4,4 C 7,4 C 0,0 km/h (0 Bft)
28/03/2012 09:50 8,4 C 79 % 1026,5 hPa 0,0 mm 0,0 km/h (0 Bft) E 90 2 min 0 W/m 5,0 C 8,4 C 0,0 km/h (0 Bft)
28/03/2012 10:00 9,4 C 78 % 1026,5 hPa 0,0 mm 0,0 km/h (0 Bft) E 90 2 min 0 W/m 5,8 C 9,4 C 0,0 km/h (0 Bft)
28/03/2012 10:10 10,3 C 75 % 1026,6 hPa 0,0 mm 0,0 km/h (0 Bft) E 90 2 min 0 W/m 6,1 C 10,3 C 0,0 km/h (0 Bft)
28/03/2012 10:20 11,4 C 73 % 1026,7 hPa 0,0 mm 0,0 km/h (0 Bft) E 90 2 min 0 W/m 6,7 C 11,4 C 0,0 km/h (0 Bft)
28/03/2012 10:30 12,3 C 69 % 1026,8 hPa 0,0 mm 0,0 km/h (0 Bft) E 90 2 min 0 W/m 6,8 C 12,3 C 0,0 km/h (0 Bft)
28/03/2012 10:40 13,1 C 66 % 1026,8 hPa 0,0 mm 0,0 km/h (0 Bft) E 90 2 min 0 W/m 6,9 C 13,1 C 0,0 km/h (0 Bft)
28/03/2012 10:50 14,2 C 64 % 1026,8 hPa 0,0 mm 1,8 km/h (1 Bft) N-NE 22 2 min 0 W/m 7,5 C 14,2 C 4,0 km/h (1 Bft)
28/03/2012 11:00 15,1 C 62 % 1026,7 hPa 0,0 mm 3,2 km/h (1 Bft) N-NE 22 2 min 0 W/m 7,9 C 15,1 C 7,9 km/h (2 Bft)
28/03/2012 11:10 15,8 C 59 % 1026,8 hPa 0,0 mm 4,0 km/h (1 Bft) NE 45 2 min 0 W/m 7,8 C 15,8 C 6,8 km/h (2 Bft)
28/03/2012 11:20 16,6 C 56 % 1026,7 hPa 0,0 mm 4,0 km/h (1 Bft) NE 45 2 min 0 W/m 7,8 C 16,6 C 7,2 km/h (2 Bft)
28/03/2012 11:30 17,3 C 54 % 1026,7 hPa 0,0 mm 3,6 km/h (1 Bft) E-NE 67 2 min 0 W/m 7,9 C 17,3 C 10,4 km/h (2 Bft)
28/03/2012 11:40 17,9 C 52 % 1026,7 hPa 0,0 mm 6,8 km/h (2 Bft) N-NE 22 2 min 0 W/m 7,9 C 17,9 C 8,3 km/h (2 Bft)
28/03/2012 11:50 18,6 C 50 % 1026,6 hPa 0,0 mm 7,2 km/h (2 Bft) N 360 2 min 0 W/m 8,0 C 18,6 C 13,3 km/h (3 Bft)
28/03/2012 12:00 19,1 C 48 % 1026,5 hPa 0,0 mm 5,8 km/h (2 Bft) NE 45 2 min 0 W/m 7,8 C 19,1 C 8,3 km/h (2 Bft)
28/03/2012 12:10 19,5 C 47 % 1026,5 hPa 0,0 mm 6,5 km/h (2 Bft) NE 45 2 min 0 W/m 7,9 C 19,5 C 8,6 km/h (2 Bft)
28/03/2012 12:20 19,7 C 45 % 1026,4 hPa 0,0 mm 10,4 km/h (2 Bft) N 360 2 min 0 W/m 7,4 C 19,7 C 13,0 km/h (3 Bft)
28/03/2012 12:30 19,9 C 44 % 1026,2 hPa 0,0 mm 9,7 km/h (2 Bft) NE 45 2 min 0 W/m 7,3 C 19,9 C 11,2 km/h (2 Bft)
28/03/2012 12:40 20,1 C 40 % 1026,1 hPa 0,0 mm 10,4 km/h (2 Bft) NE 45 2 min 0 W/m 6,1 C 20,1 C 19,8 km/h (3 Bft)
28/03/2012 12:50 20,1 C 39 % 1026,0 hPa 0,0 mm 14,4 km/h (3 Bft) N 360 2 min 0 W/m 5,7 C 20,1 C 23,4 km/h (4 Bft)
28/03/2012 13:00 20,2 C 40 % 1026,1 hPa 0,0 mm 10,4 km/h (2 Bft) N-NE 22 2 min 0 W/m 6,2 C 20,2 C 10,4 km/h (2 Bft)
28/03/2012 13:10 20,3 C 40 % 1026,0 hPa 0,0 mm 10,8 km/h (2 Bft) NE 45 2 min 0 W/m 6,3 C 20,3 C 12,2 km/h (2 Bft)
28/03/2012 13:20 20,5 C 40 % 1025,8 hPa 0,0 mm 7,9 km/h (2 Bft) N-NE 22 2 min 0 W/m 6,4 C 20,5 C 12,2 km/h (2 Bft)
28/03/2012 13:30 20,6 C 41 % 1025,7 hPa 0,0 mm 10,1 km/h (2 Bft) E-SE 112 2 min 0 W/m 6,9 C 20,6 C 17,3 km/h (3 Bft)
28/03/2012 13:40 20,9 C 40 % 1025,8 hPa 0,0 mm 8,3 km/h (2 Bft) NE 45 2 min 0 W/m 6,8 C 20,9 C 10,8 km/h (2 Bft)
28/03/2012 13:50 20,9 C 41 % 1025,8 hPa 0,0 mm 7,6 km/h (2 Bft) E-NE 67 2 min 0 W/m 7,2 C 20,9 C 9,4 km/h (2 Bft)
28/03/2012 14:00 21,1 C 40 % 1025,7 hPa 0,0 mm 10,1 km/h (2 Bft) NE 45 2 min 0 W/m 7,0 C 21,1 C 13,3 km/h (3 Bft)
28/03/2012 14:10 20,9 C 40 % 1025,7 hPa 0,0 mm 10,1 km/h (2 Bft) N-NE 22 2 min 0 W/m 6,8 C 20,9 C 10,1 km/h (2 Bft)
28/03/2012 14:20 20,9 C 39 % 1025,6 hPa 0,0 mm 11,9 km/h (2 Bft) N-NE 22 2 min 0 W/m 6,4 C 20,9 C 14,0 km/h (3 Bft)
28/03/2012 14:30 20,9 C 39 % 1025,3 hPa 0,0 mm 7,2 km/h (2 Bft) N-NE 22 2 min 0 W/m 6,4 C 20,9 C 7,2 km/h (2 Bft)
28/03/2012 14:40 20,9 C 38 % 1025,2 hPa 0,0 mm 11,2 km/h (2 Bft) NE 45 2 min 0 W/m 6,0 C 20,9 C 15,5 km/h (3 Bft)
28/03/2012 14:50 20,9 C 39 % 1025,1 hPa 0,0 mm 6,8 km/h (2 Bft) N 360 2 min 0 W/m 6,4 C 20,9 C 8,6 km/h (2 Bft)
28/03/2012 15:00 21,1 C 38 % 1024,7 hPa 0,0 mm 10,1 km/h (2 Bft) N-NE 22 2 min 0 W/m 6,2 C 21,1 C 16,9 km/h (3 Bft)
28/03/2012 15:10 21,1 C 39 % 1024,8 hPa 0,0 mm 6,5 km/h (2 Bft) N 360 2 min 0 W/m 6,6 C 21,1 C 15,5 km/h (3 Bft)
28/03/2012 15:20 21,1 C 40 % 1024,7 hPa 0,0 mm 11,2 km/h (2 Bft) E-NE 67 2 min 0 W/m 7,0 C 21,1 C 11,2 km/h (2 Bft)
28/03/2012 15:30 21,2 C 40 % 1024,6 hPa 0,0 mm 7,9 km/h (2 Bft) E-NE 67 2 min 0 W/m 7,1 C 21,2 C 11,2 km/h (2 Bft)
28/03/2012 15:40 21,2 C 39 % 1024,5 hPa 0,0 mm 12,6 km/h (3 Bft) N-NE 22 2 min 0 W/m 6,7 C 21,2 C 16,6 km/h (3 Bft)
28/03/2012 15:50 21,1 C 38 % 1024,4 hPa 0,0 mm 7,9 km/h (2 Bft) NE 45 2 min 0 W/m 6,2 C 21,1 C 12,2 km/h (2 Bft)
28/03/2012 16:00 20,9 C 38 % 1024,1 hPa 0,0 mm 12,6 km/h (3 Bft) N-NE 22 2 min 0 W/m 6,0 C 20,9 C 17,3 km/h (3 Bft)
28/03/2012 16:10 20,8 C 39 % 1024,0 hPa 0,0 mm 7,9 km/h (2 Bft) N-NE 22 2 min 0 W/m 6,3 C 20,8 C 12,2 km/h (2 Bft)
28/03/2012 16:20 20,8 C 39 % 1023,9 hPa 0,0 mm 6,8 km/h (2 Bft) NE 45 2 min 0 W/m 6,3 C 20,8 C 7,6 km/h (2 Bft)
28/03/2012 16:30 20,8 C 39 % 1023,8 hPa 0,0 mm 9,7 km/h (2 Bft) NE 45 2 min 0 W/m 6,3 C 20,8 C 9,7 km/h (2 Bft)
28/03/2012 16:40 20,8 C 39 % 1023,8 hPa 0,0 mm 9,0 km/h (2 Bft) E 90 2 min 0 W/m 6,3 C 20,8 C 19,1 km/h (3 Bft)
28/03/2012 16:50 20,9 C 39 % 1023,7 hPa 0,0 mm 5,8 km/h (2 Bft) N-NE 22 2 min 0 W/m 6,4 C 20,9 C 11,2 km/h (2 Bft)
28/03/2012 17:00 20,9 C 39 % 1023,7 hPa 0,0 mm 5,4 km/h (2 Bft) NE 45 2 min 0 W/m 6,4 C 20,9 C 7,6 km/h (2 Bft)
28/03/2012 17:10 20,9 C 39 % 1023,6 hPa 0,0 mm 1,8 km/h (1 Bft) NE 45 2 min 0 W/m 6,4 C 20,9 C 10,1 km/h (2 Bft)
28/03/2012 17:20 20,9 C 39 % 1023,7 hPa 0,0 mm 7,6 km/h (2 Bft) NE 45 2 min 0 W/m 6,4 C 20,9 C 7,6 km/h (2 Bft)
28/03/2012 17:30 20,8 C 39 % 1023,6 hPa 0,0 mm 2,5 km/h (1 Bft) NE 45 2 min 0 W/m 6,3 C 20,8 C 14,4 km/h (3 Bft)
28/03/2012 17:40 20,8 C 39 % 1023,5 hPa 0,0 mm 6,8 km/h (2 Bft) NE 45 2 min 0 W/m 6,3 C 20,8 C 10,1 km/h (2 Bft)
28/03/2012 17:50 20,8 C 39 % 1023,6 hPa 0,0 mm 10,8 km/h (2 Bft) NE 45 2 min 0 W/m 6,3 C 20,8 C 17,6 km/h (3 Bft)
28/03/2012 18:00 20,6 C 39 % 1023,5 hPa 0,0 mm 7,6 km/h (2 Bft) N-NE 22 2 min 0 W/m 6,2 C 20,6 C 12,6 km/h (3 Bft)
28/03/2012 18:10 20,6 C 39 % 1023,4 hPa 0,0 mm 5,0 km/h (1 Bft) N 360 2 min 0 W/m 6,2 C 20,6 C 11,2 km/h (2 Bft)
28/03/2012 18:20 20,5 C 39 % 1023,5 hPa 0,0 mm 2,2 km/h (1 Bft) E 90 2 min 0 W/m 6,1 C 20,5 C 7,2 km/h (2 Bft)
28/03/2012 18:30 20,4 C 40 % 1023,5 hPa 0,0 mm 4,3 km/h (1 Bft) NE 45 2 min 0 W/m 6,3 C 20,4 C 4,3 km/h (1 Bft)
28/03/2012 18:40 20,4 C 39 % 1023,5 hPa 0,0 mm 10,8 km/h (2 Bft) NE 45 2 min 0 W/m 6,0 C 20,4 C 17,3 km/h (3 Bft)
28/03/2012 18:50 20,3 C 40 % 1023,4 hPa 0,0 mm 4,7 km/h (1 Bft) E-NE 67 2 min 0 W/m 6,3 C 20,3 C 8,6 km/h (2 Bft)
28/03/2012 19:00 20,1 C 40 % 1023,3 hPa 0,0 mm 5,4 km/h (2 Bft) NE 45 2 min 0 W/m 6,1 C 20,1 C 9,4 km/h (2 Bft)
28/03/2012 19:10 19,9 C 40 % 1023,4 hPa 0,0 mm 4,0 km/h (1 Bft) NE 45 2 min 0 W/m 5,9 C 19,9 C 6,8 km/h (2 Bft)
28/03/2012 19:20 19,6 C 41 % 1023,3 hPa 0,0 mm 7,9 km/h (2 Bft) NE 45 2 min 0 W/m 6,0 C 19,6 C 16,2 km/h (3 Bft)
28/03/2012 19:30 19,4 C 41 % 1023,5 hPa 0,0 mm 5,0 km/h (1 Bft) N-NE 22 2 min 0 W/m 5,8 C 19,4 C 6,5 km/h (2 Bft)
28/03/2012 19:40 19,1 C 41 % 1023,5 hPa 0,0 mm 2,2 km/h (1 Bft) E-NE 67 2 min 0 W/m 5,5 C 19,1 C 4,3 km/h (1 Bft)
28/03/2012 19:50 18,8 C 41 % 1023,5 hPa 0,0 mm 3,6 km/h (1 Bft) N-NE 22 2 min 0 W/m 5,3 C 18,8 C 7,9 km/h (2 Bft)
28/03/2012 20:00 18,3 C 42 % 1023,5 hPa 0,0 mm 2,2 km/h (1 Bft) E-NE 67 2 min 0 W/m 5,2 C 18,3 C 4,3 km/h (1 Bft)
28/03/2012 20:10 17,8 C 43 % 1023,4 hPa 0,0 mm 0,0 km/h (0 Bft) NE 45 2 min 0 W/m 5,1 C 17,8 C 3,2 km/h (1 Bft)
28/03/2012 20:20 17,3 C 44 % 1023,4 hPa 0,0 mm 0,0 km/h (0 Bft) NE 45 0 min 0 W/m 4,9 C 17,3 C 0,0 km/h (0 Bft)
28/03/2012 20:30 16,8 C 45 % 1023,3 hPa 0,0 mm 0,4 km/h (0 Bft) NE 45 0 min 0 W/m 4,8 C 16,8 C 3,2 km/h (1 Bft)
28/03/2012 20:40 16,3 C 45 % 1023,3 hPa 0,0 mm 0,0 km/h (0 Bft) E-NE 67 0 min 0 W/m 4,3 C 16,3 C 0,0 km/h (0 Bft)
28/03/2012 20:50 15,8 C 46 % 1023,3 hPa 0,0 mm 0,0 km/h (0 Bft) NE 45 0 min 0 W/m 4,2 C 15,8 C 3,2 km/h (1 Bft)
28/03/2012 21:00 15,4 C 47 % 1023,4 hPa 0,0 mm 0,0 km/h (0 Bft) E-NE 67 0 min 0 W/m 4,1 C 15,4 C 0,0 km/h (0 Bft)
28/03/2012 21:10 14,9 C 48 % 1023,5 hPa 0,0 mm 0,0 km/h (0 Bft) E-NE 67 0 min 0 W/m 4,0 C 14,9 C 0,0 km/h (0 Bft)
28/03/2012 21:20 14,5 C 49 % 1023,5 hPa 0,0 mm 0,4 km/h (0 Bft) N-NE 22 0 min 0 W/m 3,9 C 14,5 C 2,9 km/h (1 Bft)
28/03/2012 21:30 14,1 C 50 % 1023,6 hPa 0,0 mm 0,0 km/h (0 Bft) N-NE 22 0 min 0 W/m 3,8 C 14,1 C 0,0 km/h (0 Bft)
28/03/2012 21:40 13,6 C 51 % 1023,8 hPa 0,0 mm 0,0 km/h (0 Bft) N-NE 22 0 min 0 W/m 3,7 C 13,6 C 0,0 km/h (0 Bft)
28/03/2012 21:50 13,2 C 51 % 1023,8 hPa 0,0 mm 0,0 km/h (0 Bft) N-NE 22 0 min 0 W/m 3,3 C 13,2 C 0,0 km/h (0 Bft)
28/03/2012 22:00 13,1 C 53 % 1023,8 hPa 0,0 mm 0,0 km/h (0 Bft) N-NE 22 0 min 0 W/m 3,7 C 13,1 C 0,0 km/h (0 Bft)
28/03/2012 22:10 12,9 C 54 % 1023,8 hPa 0,0 mm 0,0 km/h (0 Bft) NE 45 0 min 0 W/m 3,8 C 12,9 C 0,0 km/h (0 Bft)
28/03/2012 22:20 12,9 C 54 % 1023,8 hPa 0,0 mm 0,0 km/h (0 Bft) N-NE 22 0 min 0 W/m 3,8 C 12,9 C 0,0 km/h (0 Bft)
28/03/2012 22:30 12,9 C 55 % 1023,8 hPa 0,0 mm 0,0 km/h (0 Bft) N-NE 22 0 min 0 W/m 4,1 C 12,9 C 0,0 km/h (0 Bft)
28/03/2012 22:40 12,8 C 55 % 1023,8 hPa 0,0 mm 0,0 km/h (0 Bft) N-NE 22 0 min 0 W/m 4,0 C 12,8 C 0,0 km/h (0 Bft)
28/03/2012 22:50 12,8 C 57 % 1023,8 hPa 0,0 mm 0,0 km/h (0 Bft) N-NE 22 0 min 0 W/m 4,5 C 12,8 C 0,0 km/h (0 Bft)
28/03/2012 23:00 12,5 C 56 % 1023,8 hPa 0,0 mm 2,2 km/h (1 Bft) N-NE 22 0 min 0 W/m 4,0 C 12,5 C 4,0 km/h (1 Bft)
28/03/2012 23:10 12,4 C 57 % 1023,8 hPa 0,0 mm 0,4 km/h (0 Bft) N-NE 22 0 min 0 W/m 4,1 C 12,4 C 0,4 km/h (0 Bft)
28/03/2012 23:20 12,3 C 58 % 1023,7 hPa 0,0 mm 0,4 km/h (0 Bft) NE 45 0 min 0 W/m 4,3 C 12,3 C 0,4 km/h (0 Bft)
28/03/2012 23:30 12,1 C 59 % 1023,8 hPa 0,0 mm 0,0 km/h (0 Bft) N-NE 22 0 min 0 W/m 4,3 C 12,1 C 0,0 km/h (0 Bft)
28/03/2012 23:40 11,8 C 59 % 1023,8 hPa 0,0 mm 1,8 km/h (1 Bft) NE 45 0 min 0 W/m 4,1 C 11,8 C 7,2 km/h (2 Bft)
28/03/2012 23:50 12,0 C 61 % 1023,7 hPa 0,0 mm 2,5 km/h (1 Bft) N-NE 22 0 min 0 W/m 4,7 C 12,0 C 4,3 km/h (1 Bft)
_ Min-Heure 08:00 16:00 20:50 - 23:30 - - - - 07:30 08:00 23:30
Minimum _ 2,2 C 38 % 1023,3 hPa - 0,0 km/h (0 Bft) - - - - -0,7 C 2,2 C 0,0 km/h (0 Bft)
_ Max-Heure 15:40 09:10 00:30 23:50 12:50 - - 20:10 23:50 11:50 15:40 12:50
Maximum _ 21,2 C 85 % 1026,9 hPa 0,0 mm 14,4 km/h
N (3 Bft)
- - 2 min 0 W/m 8,0 C 21,2 C 23,4 km/h
N (4 Bft)
Moyenne _ 12,7 C 57 % 1025,3 hPa #0,0 mm 2,9 km/h (1 Bft) NE - #2:28 h 0 W/m 3,9 C 12,7 C 4,8 km/h (1 Bft)
Saint Bonnet de Bellac- Haute Vienne - France